Weather History for Perth, WE

Change the Weather History Date:

Thursday, August 8, 2013

  Actual Average Record
Temperature  
Mean Temperature 58 °F -  
Max Temperature 64 °F 66 °F 70 °F (2014)
Min Temperature 51 °F 47 °F 33 °F (2010)
Degree Days  
Heating Degree Days 8    
Growing Degree Days 8 (Base 50)    
Moisture  
Dew Point 57 °F    
Average Humidity 90    
Maximum Humidity 100    
Minimum Humidity 64    
Precipitation  
Precipitation 0.47 in 0.13 in - ()
Sea Level Pressure  
Sea Level Pressure 29.87 in    
Wind  
Wind Speed 9 mph ()    
Max Wind Speed 23 mph    
Max Gust Speed -    
Visibility 4.3 miles    
Events Rain    
Averages and records for this station are not official NWS values.
T = Trace of Precipitation, MM = Missing Value Source: Averaged Metar Reports

Daily Weather History Graph

Daily Weather History Graph

Search for Another Location

Airport:

Trip Planner

Search our weather history database for the weather conditions in past years. The results will help you decide how hot, cold, wet, or windy it might be!

Date:

Astronomy

Aug. 08, 2013 Rise Set
Actual Time 6:59 AM AWST 5:44 PM AWST
Civil Twilight 6:33 AM AWST 6:10 PM AWST
Nautical Twilight 6:04 AM AWST 6:39 PM AWST
Astronomical Twilight 5:36 AM AWST 7:07 PM AWST
Moon 7:21 AM AWST (8/8) 7:08 PM AWST (8/8)
Length of Visible Light 11h 36m
Length of Day
10h 45m
New Moon, 2% of the Moon is Illuminated
Aug 8
New Moon
Aug 14
First Quarter
Aug 21
Full
Aug 28
Last Quarter
Sep 5
New

Hourly Weather History & Observations

Time (AWST) Temp. Dew Point Humidity Pressure Visibility Wind Dir Wind Speed Gust Speed Precip Events Conditions
12:00 AM 60 °F 60 °F 100% 29.87 in 4 mi NNE 9.2 mph - - Rain Light Rain
12:00 AM 60.8 °F 60.8 °F 100% 29.86 in 3.7 mi NNE 9.2 mph - N/A Rain Light Rain
12:30 AM 60.8 °F 60.8 °F 100% 29.86 in 3.7 mi North 11.5 mph - N/A Rain Light Rain
1:00 AM 60.8 °F 59.0 °F 94% 29.86 in 3.7 mi North 9.2 mph - N/A Rain Light Rain
1:30 AM 60.8 °F 59.0 °F 94% 29.83 in 3.1 mi North 10.4 mph - N/A Rain Light Rain
1:41 AM 60.8 °F 59.0 °F 94% 29.83 in 3.7 mi North 9.2 mph - N/A Rain Light Rain
2:00 AM 60 °F 60 °F 98% 29.85 in - North 9.2 mph - -  
2:00 AM 60.8 °F 59.0 °F 94% 29.83 in 6.2 mi North 9.2 mph - N/A   Mostly Cloudy
2:23 AM 60.8 °F 60.8 °F 100% 29.83 in 3.7 mi North 9.2 mph - N/A Rain Light Rain
2:30 AM 60.8 °F 59.0 °F 94% 29.83 in 3.1 mi North 9.2 mph - N/A Rain Light Rain
3:00 AM 61 °F 60 °F 94% 29.84 in 3 mi NNE 8.1 mph - - Rain Light Rain
3:00 AM 60.8 °F 59.0 °F 94% 29.83 in 3.1 mi North 8.1 mph - N/A Rain Light Rain
3:26 AM 60.8 °F 60.8 °F 100% 29.83 in 6.2 mi North 10.4 mph - N/A Rain Light Rain
3:30 AM 60.8 °F 60.8 °F 100% 29.83 in 6.2 mi North 10.4 mph - N/A Rain Light Rain
3:46 AM 60.8 °F 60.8 °F 100% 29.83 in 3.1 mi North 10.4 mph - N/A Rain Light Rain
4:00 AM 60.8 °F 60.8 °F 100% 29.80 in 3.1 mi North 11.5 mph - N/A Rain Light Rain
4:22 AM 60.8 °F 60.8 °F 100% 29.83 in 3.1 mi North 9.2 mph - N/A Rain Rain
4:30 AM 60.8 °F 60.8 °F 100% 29.80 in 3.1 mi NNW 11.5 mph - N/A Rain Rain
5:00 AM 61 °F 60 °F 96% 29.83 in - NNW 15.0 mph - -  
5:00 AM 60.8 °F 60.8 °F 100% 29.83 in 3.1 mi NNW 15.0 mph - N/A Rain Light Rain
5:30 AM 60.8 °F 60.8 °F 100% 29.83 in 3.7 mi NNW 15.0 mph - N/A   Mostly Cloudy
5:43 AM 60.8 °F 60.8 °F 100% 29.80 in 2.5 mi NNW 13.8 mph - N/A Rain Rain
6:00 AM 60.8 °F 60.8 °F 100% 29.80 in 2.5 mi NNW 10.4 mph - N/A Rain Light Rain
6:11 AM 60.8 °F 60.8 °F 100% 29.83 in 1.2 mi NNW 10.4 mph - N/A Rain Rain
6:30 AM 60.8 °F 60.8 °F 100% 29.80 in 3.7 mi NNW 11.5 mph - N/A Rain Rain
6:37 AM 60.8 °F 60.8 °F 100% 29.83 in 1.9 mi North 15.0 mph - N/A Rain Rain
7:00 AM 60.8 °F 60.8 °F 100% 29.83 in 3.1 mi North 11.5 mph - N/A Rain Light Rain
7:12 AM 60.8 °F 60.8 °F 100% 29.83 in 1.9 mi NW 9.2 mph - N/A Rain Light Rain
7:30 AM 62.6 °F 60.8 °F 94% 29.83 in 6.2 mi WNW 5.8 mph - N/A   Mostly Cloudy
8:00 AM 63 °F 61 °F 92% 29.84 in - NNW 6.9 mph - -  
8:00 AM 62.6 °F 60.8 °F 94% 29.83 in 5.6 mi NNW 6.9 mph - N/A Rain Light Rain Showers
8:24 AM 62.6 °F 62.6 °F 100% 29.83 in 5.0 mi NNW 6.9 mph - N/A Rain Light Rain Showers
8:27 AM 62.6 °F 62.6 °F 100% 29.83 in 1.9 mi NW 8.1 mph - N/A Rain Light Rain Showers
8:30 AM 62.6 °F 62.6 °F 100% 29.83 in 1.9 mi NNW 8.1 mph - N/A Rain Light Rain Showers
9:00 AM 63 °F 62 °F 95% 29.86 in 1 mi NW 12.7 mph - - Rain Rain
9:00 AM 62.6 °F 62.6 °F 100% 29.86 in 1.2 mi NW 12.7 mph - N/A Rain Rain
9:25 AM 62.6 °F 60.8 °F 94% 29.83 in 5.0 mi NW 12.7 mph - N/A Rain Light Rain Showers
9:30 AM 62.6 °F 60.8 °F 94% 29.83 in 5.0 mi NW 11.5 mph - N/A Rain Light Rain Showers
9:44 AM 62.6 °F 60.8 °F 94% 29.83 in 3.1 mi NW 8.1 mph - N/A Rain Light Rain Showers
9:49 AM 62.6 °F 60.8 °F 94% 29.83 in 1.2 mi NW 8.1 mph - N/A Rain Rain Showers
9:54 AM 62.6 °F 60.8 °F 94% 29.83 in 1.2 mi NNW 8.1 mph - N/A Rain Light Rain Showers
10:00 AM 62.6 °F 60.8 °F 94% 29.83 in 1.2 mi WSW 12.7 mph - N/A Rain Rain Showers
10:09 AM 60.8 °F 60.8 °F 100% 29.86 in 0.6 mi WSW 11.5 mph - N/A Rain Heavy Rain Showers
10:19 AM 60.8 °F 60.8 °F 100% 29.86 in 1.9 mi West 10.4 mph - N/A Rain Rain Showers
10:30 AM 60.8 °F 60.8 °F 100% 29.86 in 5.6 mi WNW 8.1 mph - N/A Rain Light Rain
11:00 AM 62 °F 60 °F 92% 29.86 in - WNW 9.2 mph - -  
11:00 AM 62.6 °F 60.8 °F 94% 29.86 in 5.6 mi WNW 9.2 mph - N/A Rain Light Rain Showers
11:16 AM 62.6 °F 60.8 °F 94% 29.86 in 1.2 mi WNW 9.2 mph - N/A Rain Light Rain Showers
11:30 AM 62.6 °F 60.8 °F 94% 29.86 in 1.9 mi WSW 12.7 mph - N/A Rain Rain Showers
12:00 PM 62 °F 60 °F 90% 29.86 in 2 mi WSW 10.4 mph - - Rain Rain
12:00 PM 60.8 °F 60.8 °F 100% 29.86 in 1.9 mi SW 10.4 mph - N/A Rain Rain
12:25 PM 62.6 °F 60.8 °F 94% 29.86 in 0.9 mi WSW 9.2 mph - N/A Rain Rain
12:30 PM 60.8 °F 59.0 °F 94% 29.86 in 0.6 mi SW 20.7 mph - N/A Rain Rain
12:48 PM 60.8 °F 57.2 °F 88% 29.86 in 6.2 mi SW 20.7 mph - N/A   Overcast
1:00 PM 60.8 °F 57.2 °F 88% 29.86 in 6.2 mi SW 19.6 mph - N/A   Mostly Cloudy
1:30 PM 60.8 °F 53.6 °F 77% 29.86 in 6.2 mi SW 13.8 mph - N/A   Mostly Cloudy
2:00 PM 62.6 °F 53.6 °F 72% 29.86 in 6.2 mi SW 10.4 mph - N/A Rain Light Rain Showers
2:30 PM 62.6 °F 53.6 °F 72% 29.86 in 6.2 mi SW 8.1 mph - N/A   Scattered Clouds
2:44 PM 64.4 °F 53.6 °F 68% 29.86 in 1.9 mi WSW 9.2 mph - N/A Rain Rain Showers
2:47 PM 60.8 °F 55.4 °F 82% 29.89 in 1.2 mi WSW 23.0 mph - N/A Rain Rain Showers
3:00 PM 58 °F 54 °F 83% 29.89 in 12 mi WSW 13.8 mph - - Rain Light Rain Showers
3:00 PM 59.0 °F 53.6 °F 82% 29.89 in 6.2 mi WSW 12.7 mph - N/A Rain Light Rain Showers
3:30 PM 60.8 °F 53.6 °F 77% 29.89 in - West 8.1 mph - N/A   Clear
4:00 PM 62.6 °F 53.6 °F 72% 29.89 in - West 10.4 mph - N/A   Clear
4:30 PM 62.6 °F 51.8 °F 68% 29.89 in - WSW 10.4 mph - N/A   Clear
5:00 PM 62 °F 53 °F 64% 29.92 in - West 11.5 mph - -  
5:00 PM 60.8 °F 53.6 °F 77% 29.92 in 6.2 mi West 11.5 mph - N/A   Scattered Clouds
5:30 PM 60.8 °F 53.6 °F 77% 29.92 in 6.2 mi West 6.9 mph - N/A   Scattered Clouds
6:00 PM 58 °F 54 °F 81% 29.94 in 12 mi WNW 6.9 mph - - Rain Light Rain Showers
6:00 PM 59.0 °F 53.6 °F 82% 29.92 in 6.2 mi WNW 6.9 mph - N/A Rain Light Rain Showers
6:30 PM 59.0 °F 51.8 °F 77% 29.95 in 6.2 mi WSW 6.9 mph - N/A   Partly Cloudy
7:00 PM 57.2 °F 51.8 °F 82% 29.95 in 6.2 mi SW 5.8 mph - N/A   Partly Cloudy
7:30 PM 53.6 °F 51.8 °F 94% 29.95 in 6.2 mi West 1.2 mph - N/A   Partly Cloudy
8:00 PM 57 °F 49 °F 65% 29.97 in - WSW 9.2 mph - -  
8:00 PM 57.2 °F 48.2 °F 72% 29.95 in 6.2 mi WSW 9.2 mph - N/A   Partly Cloudy
8:30 PM 57.2 °F 48.2 °F 72% 29.98 in 6.2 mi West 5.8 mph - N/A   Partly Cloudy
9:00 PM 56 °F 49 °F 70% 29.99 in 16 mi West 6.9 mph - -   Partly Cloudy
9:00 PM 55.4 °F 48.2 °F 77% 29.98 in 6.2 mi West 6.9 mph - N/A   Mostly Cloudy
9:30 PM 57.2 °F 50.0 °F 77% 29.98 in 6.2 mi West 5.8 mph - N/A   Mostly Cloudy
10:00 PM 55.4 °F 51.8 °F 88% 29.98 in 6.2 mi West 3.5 mph - N/A   Partly Cloudy
10:30 PM 53.6 °F 50.0 °F 88% 29.98 in 6.2 mi WSW 6.9 mph - N/A   Partly Cloudy
11:00 PM 51 °F 49 °F 89% 30.00 in - WSW 6.9 mph - -  
11:00 PM 51.8 °F 48.2 °F 88% 29.98 in 6.2 mi WSW 6.9 mph - N/A   Mostly Cloudy
11:30 PM 57.2 °F 50.0 °F 77% 30.01 in 6.2 mi WSW 5.8 mph - N/A   Mostly Cloudy